sat.trackr.live / text

‹ back to catalog

STARLINK-3897

NORAD 52537 · 2022-051E

PAYLOAD ACTIVE UNKNOWN

§ Identity

Operator
Country
US
Launch date
2022-05-13
Launch site
AFWTR
Launch vehicle
Mass (kg)
RCS (m²)

Purposes: comms

External: N2YO · Heavens-Above · Gunter

§ Orbital elements

Epoch: 2026-05-24T23:49:43.535136Z

Period
95.44 min
Inclination
53.2137°
Eccentricity
0.0001041
Mean motion
15.08844578 rev/d
Perigee alt
539.0 km
Apogee alt
540.4 km
Semi-major
6,917.9 km
B*
-2.9781e-5
RAAN
146.3878°
Arg perigee
83.9075°
Mean anomaly
276.2036°
Rev number
22,296

§ Raw data

STARLINK-38971 52537U 22051E   26144.99286499 -.00000762  00000+0 -29781-4 0  99922 52537  53.2137 146.3878 0001041  83.9075 276.2036 15.08844578222967

JSON: /api/v1/satellites/52537 · /tle

For live sub-satellite position, see the globe view (requires WebGL).

§ Visibility from observer

Set your observer location to see the next 7 days of passes ≥ 10°. The values pass through the URL so the page stays shareable.

No JS? Fill the form by hand. The geolocation button needs JavaScript.